This is the latest recevied weather packets stored in our database for station/object KN6WGU. If no packets are shown the sender has not sent any weather packets the latest 10 day(s).
| Time | Temp. | Humidity | Pressure | Rain* | Wind** | Luminosity | Snow |
|---|---|---|---|---|---|---|---|
| 1777898775 | 14.44° C | 59% | 1001.1 hPa | 0 mm | - | 53 W/m² | - |
| 1777898473 | 13.89° C | 59% | 1001.2 hPa | 0 mm | - | 49 W/m² | - |
| 1777898171 | 13.89° C | 59% | 1001.3 hPa | 0 mm | - | 55 W/m² | - |
| 1777897868 | 13.89° C | 60% | 1001.1 hPa | 0 mm | - | 56 W/m² | - |
| 1777897564 | 13.33° C | 61% | 1001.2 hPa | 0 mm | - | 64 W/m² | - |
| 1777897259 | 13.33° C | 61% | 1001.2 hPa | 0 mm | - | 45 W/m² | - |
| 1777896955 | 13.33° C | 62% | 1001 hPa | 0 mm | - | 39 W/m² | - |
| 1777896653 | 12.78° C | 61% | 1001.1 hPa | 0 mm | - | 37 W/m² | - |
| 1777896350 | 12.78° C | 62% | 1001.1 hPa | 0 mm | - | 32 W/m² | - |
| 1777896048 | 12.78° C | 61% | 1001.2 hPa | 0 mm | - | 38 W/m² | - |
| 1777895745 | 12.78° C | 62% | 1001.1 hPa | 0 mm | - | 53 W/m² | - |
| 1777895442 | 12.22° C | 64% | 1001 hPa | 0 mm | - | 37 W/m² | - |
| 1777895140 | 12.22° C | 63% | 1001.1 hPa | 0 mm | - | 32 W/m² | - |
| 1777894837 | 12.22° C | 63% | 1001 hPa | 0 mm | - | 34 W/m² | - |
| 1777894534 | 12.22° C | 63% | 1000.9 hPa | 0 mm | - | 28 W/m² | - |
| 1777894232 | 12.22° C | 63% | 1001 hPa | 0 mm | - | 29 W/m² | - |
| 1777893928 | 11.67° C | 64% | 1000.9 hPa | 0 mm | - | 26 W/m² | - |
| 1777893624 | 11.67° C | 64% | 1000.9 hPa | 0 mm | - | 25 W/m² | - |
| 1777893321 | 11.67° C | 63% | 1000.8 hPa | 0 mm | - | 24 W/m² | - |
| 1777893017 | 11.67° C | 64% | 1000.7 hPa | 0 mm | - | 20 W/m² | - |
| 1777892715 | 11.67° C | 64% | 1000.6 hPa | 0 mm | - | 18 W/m² | - |
| 1777892410 | 11.67° C | 63% | 1000.7 hPa | 0 mm | - | 17 W/m² | - |
| 1777892106 | 11.67° C | 64% | 1000.8 hPa | 0 mm | - | 15 W/m² | - |
| 1777891803 | 11.67° C | 62% | 1000.7 hPa | 0 mm | - | 12 W/m² | - |
| 1777891500 | 11.67° C | 62% | 1000.6 hPa | 0 mm | - | 10 W/m² | - |
* Rain latest hour (hover to see other rain measurements)
** Current wind speed in m/s (hover to see current wind gust speed)